www.pogodaiklimat.ru

Погода и климат >> Архив погоды >> Индонезия >> Котабару


ПОГОДА в Котабару

  • Прогноз погоды в Котабару
  • Монитор погоды в Котабару

АРХИВ ПОГОДЫ в Котабару

Время (UTC), дата Ветер
(напр.,м/с)
 
Видим.   Явления Облачность Т
(С)
Тd
(С)
f
(%)
Тe
(С)
Тes
(С)
Комфортность P
(гПа)
Po
(гПа)
Тmin
(С)
Tmax
(С)
R
(мм)
R24
(мм)
S
(см)
09 9.09 ЮВ 4 9000 м 5/3 450 м
[Cu med, cong As trans Ci fib]
+30.0 +17.3 46 +34 +35 очень
душно
1009.9 1009.7
12 9.09 Ю 4 9000 м 5/3 450 м
[Cu med, cong As trans Ci fib]
+25.9 +20.4 72 +32 +32 очень
душно
1011.9 1011.7 +32.2
15 9.09 ЮВ 2 9000 м 5/3 450 м
[Cu med, cong As trans Ci fib]
+23.8 +20.4 81 +29 +29 душно 1013.3 1013.1
00 10.09 штиль 0 8000 м 6/4 420 м
[Cu med, cong Ac trans Ci fib]
+23.1 +22.0 94 +31 +34 очень
душно
1013.8 1013.6 +21.1
03 10.09 З 2 8000 м 6/4 420 м
[Cu med, cong Ac trans Ci fib]
+30.2 +22.7 64 +40 +50 очень
душно
1013.3 1013.1
06 10.09 СВ 4 8000 м 6/4 420 м
[Cu med, cong Ac trans Ci fib]
+33.4 +16.9 37 +36 +43 очень
душно
1010.8 1010.6
09 10.09 ЮВ 3 8000 м 5/4 450 м
[Cu med, cong Ac trans Ci fib]
+31.6 +18.2 45 +36 +37 очень
душно
1010.7 1010.4
12 10.09 ЮВ 5 8000 м 5/4 450 м
[Cu med, cong Ac trans Ci fib]
+26.7 +21.6 74 +34 +34 очень
душно
1012.5 1012.2 +33.7
15 10.09 ЮВ 3 8000 м 5/4 450 м
[Cu med, cong Ac trans Ci fib]
+26.3 +20.0 68 +32 +32 очень
душно
1014.0 1013.7
00 11.09 СЗ 1 6000 м дым {туман} 8/5 420 м
[Cu med, cong Ac trans Ci fib]
+23.5 +22.2 92 +30 +32 очень
душно
1014.9 1014.7 +21.6
03 11.09 СВ 3 8000 м {туман} 8/5 420 м
[Cu med, cong Ac trans Ci fib]
+30.3 +20.2 55 +37 +43 очень
душно
1014.4 1014.2
06 11.09 С 3 8000 м {туман} 8/5 420 м
[Cu med, cong Ac trans Ci fib]
+31.5 +20.1 51 +38 +43 очень
душно
1011.3 1011.0
09 11.09 ЮВ 3 9000 м 5/4 420 м
[Cu med, cong Ac trans Ci fib]
+30.5 +20.8 56 +38 +39 очень
душно
1010.1 1009.8
12 11.09 Ю 1 8000 м 5/4 420 м
[Cu med, cong Ac trans Ci fib]
+25.7 +20.8 74 +32 +32 очень
душно
1012.0 1011.7 +32.1
15 11.09 штиль 0 8000 м 5/4 420 м
[Cu med, cong Ac trans Ci fib]
+23.4 +20.3 83 +31 +31 очень
душно
1014.0 1013.6
00 12.09 ЮЗ 2 7000 м 6/4 420 м
[Cu med, cong Ac trans Ci fib]
+23.4 +21.8 91 +32 +34 очень
душно
1015.2 1015.0 +21.0
03 12.09 ЮВ 4 8000 м 6/4 420 м
[Cu med, cong Ac trans Ci fib]
+30.8 +18.1 47 +35 +42 очень
душно
1014.4 1014.2
06 12.09 ЮВ 4 1100 м дым {дождь, туман} 9/5 420 м
[Cu med, cong As op Ci fib]
+30.0 +19.3 53 +36 +39 очень
душно
1011.4 1011.2 0.0
09 12.09 Ю 4 5000 м дым {туман} 8/5 420 м
[Cu med, cong Ac trans Ci fib]
+29.0 +20.5 60 +36 +36 очень
душно
1010.5 1010.2
12 12.09 Ю 5 5000 м дым {туман} 8/5 420 м
[Cu med, cong Ac trans Ci fib]
+25.8 +20.6 73 +32 +32 очень
душно
1012.1 1011.8 +31.1
15 12.09 Ю 2 8000 м {туман} 8/5 420 м
[Cu med, cong Ac trans Ci fib]
+23.7 +20.7 83 +30 +30 очень
душно
1013.4 1013.0
00 13.09 Ю 2 6000 м {туман} 8/4 420 м
[Cu med, cong As trans Ci fib]
+24.5 +21.1 81 +31 +33 очень
душно
1014.3 1014.1 +21.7 0.0
03 13.09 Ю 3 8000 м 8/4 420 м
[Cu med, cong As trans Ci fib]
+30.7 +17.6 46 +35 +42 очень
душно
1013.5 1013.3
06 13.09 ЮВ 4 8000 м 8/5 420 м
[Cu med, cong As trans Ci fib]
+30.5 +19.2 51 +36 +40 очень
душно
1010.6 1010.4
09 13.09 ЮВ 2 8000 м 8/5 420 м
[Cu med, cong Ac trans Ci fib]
+29.7 +20.9 59 +37 +38 очень
душно
1010.2 1009.9
12 13.09 Ю 2 8000 м 8/5 420 м
[Cu med, cong Ac trans Ci fib]
+25.1 +20.9 78 +32 +32 очень
душно
1011.8 1011.5 +30.9
15 13.09 Ю 2 8000 м 8/5 420 м
[Cu med, cong Ac trans Ci fib]
+23.3 +20.8 86 +31 +31 очень
душно
1013.0 1012.6
00 14.09 ЮВ 2 6000 м дым {туман} 5/4 420 м
[Cu med, cong As trans Ci fib]
+24.2 +22.3 89 +31 +34 очень
душно
1014.1 1013.9 +20.8
03 14.09 СВ 2 8000 м 8/5 420 м
[Cu med, cong As trans Ci fib]
+30.2 +18.6 50 +35 +42 очень
душно
1013.3 1013.1
06 14.09 Ю 3 8000 м 8/5 420 м
[Cu med, cong As trans Ci fib]
+31.1 +19.0 49 +37 +42 очень
душно
1010.4 1010.1
09 14.09 ЮВ 4 8000 м 8/5 420 м
[Cu med, cong As trans Ci fib]
+30.3 +20.2 55 +37 +38 очень
душно
1009.9 1009.7
12 14.09 Ю 1 8000 м 6/4 420 м
[Cu med, cong As trans Ci fib]
+26.2 +20.7 72 +33 +33 очень
душно
1011.8 1011.6 +31.6
15 14.09 Ю 2 8000 м 6/4 420 м
[Cu med, cong As trans Ci fib]
+23.8 +20.5 82 +30 +30 очень
душно
1012.5 1012.3
00 15.09 Ю 2 7000 м 5/3 420 м
[Cu med, cong As trans Ci fib]
+24.5 +22.6 89 +32 +35 очень
душно
1012.7 1012.5 +20.5
03 15.09 З 3 8000 м 6/4 420 м
[Cu med, cong As trans Ci fib]
+31.3 +18.9 48 +37 +46 очень
душно
1011.6 1011.3
06 15.09 СВ 3 8000 м 8/5 420 м
[Cu med, cong As trans Ci fib]
+31.3 +20.0 51 +38 +43 очень
душно
1008.9 1008.6
09 15.09 В 2 8000 м 8/5 420 м
[Cu med, cong As trans Ci fib]
+30.2 +20.4 56 +37 +38 очень
душно
1008.8 1008.5
12 15.09 штиль 0 8000 м 5/3 420 м
[Cu med, cong As trans Ci fib]
+26.5 +20.9 71 +33 +33 очень
душно
1010.5 1010.3 +31.7
15 15.09 ЮВ 2 8000 м 5/3 420 м
[Cu med, cong As trans Ci fib]
+24.1 +20.8 82 +30 +30 очень
душно
1011.6 1011.4
00 16.09 Ю 1 8000 м 5/3 420 м
[Sc As trans Ci fib]
+24.4 +22.7 90 +32 +35 очень
душно
1012.3 1012.1 +21.7
03 16.09 З 3 8000 м 6/4 420 м
[Cu med, cong As trans Ci fib]
+29.3 +21.9 64 +38 +47 очень
душно
1011.5 1011.3

 

Местоположение метеостанции Котабару (Индонезия): широта -3.40 долгота 116.21 высота над уровнем моря 18 м.

В архиве по умолчанию представлена погода в Котабару за последнюю неделю. Архивные данные за месяц целиком и за предыдущие месяцы, начиная с января 2011 года, Вы можете получить, выбрав интересующий диапазон дат из раскрывающегося списка и нажав кнопку "Ввод!".


*Определитесь, кто Вы:
робот инопланетянин человек

Внимание! Время в таблицах - всемирное. Для получения местного времени необходимо прибавить поправку, которая равна 8 ч.

Смотрите также архив погоды в соседних городах и на ближайших метеорологических станциях:

Погода в Банджармасине (Индонезия) (162 км)
Погода в Баликпапане (Индонезия) (249 км)
Погода в Муаратевехе (Индонезия) (309 км)
Погода в Маджене (Индонезия) (326 км)
Погода в Самаринде (Индонезия) (326 км)
Погода в Паоанкарая (Индонезия) (363 км)
Погода в Аэропорту Султана Хасануддин (Индонезия) (414 км)
Погода в Уджангпанданге (Индонезия) (414 км)
Погода в Масамбе (Индонезия) (471 км)
Погода в Калиянджете (Индонезия) (476 км)

Пояснения к столбцам:

Ветер - указаны скорость ветра в м/с - средняя за 10 мин, порывы в срок и между сроками (в фигурных скобках) и направление, откуда дует ветер: С - северный, СВ - северо-восточный, В - восточный, ЮВ - юго-восточный, Ю - южный, ЮЗ - юго-западный, З - западный, СЗ - северо-западный.
Видимость - горизонтальная дальность видимости в метрах или километрах. При видимости от 1 до 10 км при отсутствии осадков обычно наблюдается дымка, при ухудшении видимости до 1 км и менее - туман. В сухую погоду видимость может ухудшаться дымом, пылью или мглою.
Явления - указаны атмосферные явления, наблюдавшиеся в срок или в последний час перед сроком; фигурными скобками обозначены явления, наблюдавшиеся между сроками (за 1-3 часа до срока); квадратными скобками обозначены град или гололедные отложения с указанием их диаметра в мм.
Облачность - указаны через наклонную черту общая и нижняя облачность в баллах и высота нижней границы облаков в метрах; квадратными скобками обозначены формы облаков: Ci - перистые, Cs - перисто-слоистые, Cc - перисто-кучевые, Ac - высококучевые, As - высокослоистые, Sc - слоисто-кучевые, Ns - слоисто-дождевые, Cu - кучевые, Cb - кучево-дождевые. Подробнее классификацию облаков см. в Атласе облаков (PDF).
T - Температура воздуха - температура, измеренная на высоте 2 м над землей.
Td - Температура точки росы - температура, при понижении до которой содержащийся в воздухе водяной пар достигнет насыщения.
f - Относительная влажность воздуха - влажноcть воздуха, измеренная на высоте 2 м над землей.
Te - Эффективная температура - температура, которую ощущает одетый по сезону человек в тени. Характеристика душности погоды. При расчете учитывается влияние влажности воздуха и скорости ветра на теплоощущения человека.
Tes - Эффективная температура на солнце - температура, которую ощущает человек, с поправкой на солнечный нагрев. Характеристика знойности погоды. Зависит от высоты солнца над горизонтом, облачности и скорости ветра. Ночью, в пасмурную погоду, а также при ветре 12 м/с и более поправка равна нулю.
P - Атмосферное давление - приведенное к уровню моря атмосферное давление.
Po - Атмосферное давление - измеренное на уровне метеостанции атмосферное давление.
Tmin - Минимальная температура - минимум температуры воздуха на высоте 2 м над землей.
Tmax - Максимальная температура - максимум температуры воздуха на высоте 2 м над землей.
R - Количество осадков - Количество выпавших осадков за период времени, мм. При наведении курсора мыши на число - период времени, за который выпало указанное количество осадков.
R24 - Количество осадков - Количество выпавших осадков за 24 часа, мм.
S - Снежный покров - Высота снежного покрова, см. При наведении курсора мыши на число - состояние снежного покрова и степень покрытия местности в баллах.